,�O�C���x,�����t���O,�O�C���x,�����t���O,�󒲎����x,�����t���O,�󒲎����x,�����t���O,��󒲎����x,�����t���O,����,�����t���O
2004/10/1 0:00,19.2,0,93,0,27.1,0,55.6,0,26.2,0,23.9,0
2004/10/1 0:15,19.2,0,93,0,27,0,55.8,0,26.1,0,23.7,0
2004/10/1 0:30,19.1,0,92,0,27,0,56,0,26,0,23.8,0
2004/10/1 0:45,19.2,0,94,0,26.9,0,56.2,0,25.9,0,23.8,0
2004/10/1 1:00,19,0,94,0,26.8,0,56.3,0,25.8,0,23.8,0
2004/10/1 1:15,18.9,0,95,0,26.8,0,56.4,0,25.8,0,23.8,0
2004/10/1 1:30,18.8,0,95,0,26.8,0,56.6,0,25.8,0,23.8,0
2004/10/1 1:45,18.9,0,94,0,26.7,0,56.8,0,25.8,0,23.8,0
2004/10/1 2:00,18.4,0,95,0,26.6,0,56.9,0,25.8,0,23.8,0
2004/10/1 2:15,18.6,0,96,0,26.6,0,57,0,25.7,0,23.8,0
2004/10/1 2:30,18.4,0,96,0,26.5,0,57,0,25.7,0,23.8,0
2004/10/1 2:45,18.5,0,97,0,26.5,0,57.1,0,25.7,0,23.8,0
2004/10/1 3:00,18.5,0,97,0,26.4,0,57.1,0,25.6,0,23.8,0
2004/10/1 3:15,18.4,0,97,0,26.4,0,57.1,0,25.6,0,23.8,0
2004/10/1 3:30,18.3,0,97,0,26.3,0,57.1,0,25.6,0,23.8,0
2004/10/1 3:45,18.3,0,97,0,26.3,0,57.2,0,25.5,0,23.9,0
2004/10/1 4:00,18.1,0,97,0,26.2,0,57.3,0,25.5,0,23.9,0
2004/10/1 4:15,18,0,97,0,26.2,0,57.2,0,25.4,0,23.9,0
2004/10/1 4:30,17.8,0,97,0,26.1,0,57.2,0,25.4,0,23.9,0
2004/10/1 4:45,17.9,0,97,0,26.1,0,57.2,0,25.3,0,23.9,0
2004/10/1 5:00,18,0,96,0,26,0,57.3,0,25.3,0,23.9,0
2004/10/1 5:15,17.6,0,97,0,26,0,57.2,0,25.2,0,23.9,0
2004/10/1 5:30,18.1,0,96,0,25.9,0,57.3,0,25.2,0,23.9,0
2004/10/1 5:45,18.4,0,96,0,25.9,0,57.3,0,25.1,0,23.9,0
2004/10/1 6:00,18.6,0,95,0,25.9,0,57.3,0,25.1,0,23.9,0
2004/10/1 6:15,18.8,0,95,0,25.9,0,57.1,0,25,0,23.9,0
2004/10/1 6:30,19.2,0,93,0,26.2,0,56.9,0,25,0,23.9,0
2004/10/1 6:45,19.7,0,90,0,26.2,0,56.8,0,24.9,0,23.9,0
2004/10/1 7:00,20.3,0,85,0,26.4,0,56.7,0,24.9,0,23.9,0
2004/10/1 7:15,20.8,0,82,0,26.5,0,56.5,0,24.9,0,23.9,0
2004/10/1 7:30,21.4,0,80,0,26.7,0,56.2,0,24.8,0,23.9,0
2004/10/1 7:45,22.3,0,74,0,26.8,0,56,0,24.8,0,23.9,0
2004/10/1 8:00,22.9,0,71,0,26.9,0,55.8,0,24.9,0,23.9,0
2004/10/1 8:15,23.7,0,68,0,27,0,55.8,0,24.9,0,23.9,0
2004/10/1 8:30,24.5,0,61,0,27.1,0,55.7,0,24.9,0,23.9,0
2004/10/1 8:45,25,0,60,0,27.2,0,55.7,0,25,0,23.9,0
2004/10/1 9:00,25.6,0,58,0,27.2,0,55.7,0,25,0,23.9,0
2004/10/1 9:15,26.1,0,57,0,27.3,0,55.7,0,25.2,0,23.9,0
2004/10/1 9:30,26.6,0,56,0,27.4,0,55.8,0,25.3,0,23.9,0
2004/10/1 9:45,26.7,0,58,0,27.5,0,55.9,0,25.4,0,23.9,0
2004/10/1 10:00,26.8,0,58,0,27.5,0,56,0,25.5,0,23.9,0
2004/10/1 10:15,26.9,0,59,0,27.5,0,56.1,0,25.6,0,23.9,0
2004/10/1 10:30,28.1,0,54,0,27.6,0,56.2,0,25.7,0,23.9,0
2004/10/1 10:45,28.7,0,52,0,27.7,0,56.2,0,25.8,0,23.9,0
2004/10/1 11:00,28.9,0,52,0,27.8,0,56.3,0,26,0,23.9,0
2004/10/1 11:15,29.2,0,52,0,27.9,0,56.4,0,26.1,0,23.9,0
2004/10/1 11:30,29.1,0,51,0,27.9,0,56.5,0,26.3,0,23.9,0
2004/10/1 11:45,29.3,0,50,0,28,0,56.7,0,26.4,0,23.9,0
2004/10/1 12:00,29.3,0,52,0,28.1,0,56.7,0,26.5,0,23.9,0
2004/10/1 12:15,30.1,0,50,0,28.2,0,56.8,0,26.7,0,23.9,0
2004/10/1 12:30,29.9,0,49,0,28.2,0,57,0,26.8,0,23.9,0
2004/10/1 12:45,29.2,0,52,0,28.3,0,57.1,0,26.9,0,23.9,0
2004/10/1 13:00,29.8,0,51,0,28.4,0,57,0,27.1,0,23.9,0
2004/10/1 13:15,29.3,0,58,0,28.4,0,57.3,0,27.2,0,23.9,0
2004/10/1 13:30,27.7,0,66,0,28.4,0,57.5,0,27.3,0,23.9,0
2004/10/1 13:45,27.6,0,69,0,28.4,0,57.6,0,27.5,0,24,0
2004/10/1 14:00,27.2,0,69,0,28.3,0,57.8,0,27.6,0,24,0
2004/10/1 14:15,27.9,0,69,0,28.4,0,57.7,0,27.8,0,24,0
2004/10/1 14:30,29.2,0,61,0,28.4,0,57.8,0,27.9,0,24,0
2004/10/1 14:45,27.9,0,64,0,28.4,0,57.9,0,28,0,24,0
2004/10/1 15:00,27.4,0,63,0,28.4,0,58,0,28.1,0,24,0
2004/10/1 15:15,26.8,0,71,0,28.4,0,58.1,0,28.2,0,24,0
2004/10/1 15:30,26.3,0,72,0,28.4,0,58.2,0,28.2,0,24,0
2004/10/1 15:45,26.4,0,71,0,28.4,0,58.2,0,28.4,0,24,0
2004/10/1 16:00,26.1,0,72,0,28.3,0,58.2,0,28.4,0,24,0
2004/10/1 16:15,25.8,0,72,0,28.3,0,58.3,0,28.5,0,24.1,0
2004/10/1 16:30,25.6,0,73,0,28.3,0,58.4,0,28.5,0,24.1,0
2004/10/1 16:45,25.3,0,74,0,28.3,0,58.4,0,28.5,0,24.1,0
2004/10/1 17:00,25.1,0,75,0,28.2,0,58.4,0,28.5,0,24.1,0
2004/10/1 17:15,24.8,0,77,0,28.2,0,58.4,0,28.6,0,24.1,0
2004/10/1 17:30,24.5,0,78,0,28.2,0,58.5,0,28.6,0,24.1,0
2004/10/1 17:45,24.3,0,80,0,28.2,0,58.6,0,28.6,0,24.1,0
2004/10/1 18:00,24.2,0,80,0,28.1,0,58.6,0,28.6,0,24.2,0
2004/10/1 18:15,24.1,0,81,0,28.1,0,58.6,0,28.5,0,24.2,0
2004/10/1 18:30,24,0,82,0,28.1,0,58.8,0,28.5,0,24.2,0
2004/10/1 18:45,23.9,0,82,0,28.1,0,58.8,0,28.5,0,24.2,0
2004/10/1 19:00,23.4,0,85,0,28.2,0,58.5,0,28.5,0,24.2,0
2004/10/1 19:15,23.6,0,84,0,28.2,0,58.3,0,28.4,0,24.2,0
2004/10/1 19:30,23.3,0,85,0,28.2,0,58.2,0,28.4,0,24.3,0
2004/10/1 19:45,23,0,86,0,28.2,0,58.2,0,28.4,0,24.3,0
2004/10/1 20:00,22.9,0,87,0,28.2,0,58.3,0,28.3,0,24.3,0
2004/10/1 20:15,22.8,0,87,0,28.2,0,58,0,28.3,0,24.3,0
2004/10/1 20:30,22.5,0,87,0,28.2,0,57.6,0,28.2,0,24.3,0
2004/10/1 20:45,22.4,0,87,0,28.2,0,57.4,0,28.2,0,24.4,0
2004/10/1 21:00,22.2,0,88,0,28.1,0,57.1,0,28.2,0,24.4,0
2004/10/1 21:15,21.6,0,89,0,28.2,0,56.7,0,28.1,0,24.4,0
2004/10/1 21:30,21.6,0,89,0,28.1,0,56.4,0,28,0,24.4,0
2004/10/1 21:45,21.4,0,89,0,28,0,56.2,0,28,0,24.4,0
2004/10/1 22:00,21.3,0,89,0,28,0,56,0,27.9,0,24.4,0
2004/10/1 22:15,20.9,0,90,0,28,0,55.9,0,27.8,0,24.2,0
2004/10/1 22:30,21.1,0,89,0,27.9,0,55.2,0,27.8,0,24.2,0
2004/10/1 22:45,20.8,0,89,0,27.8,0,55.3,0,27.7,0,23.9,0
2004/10/1 23:00,20.7,0,89,0,27.8,0,55.8,0,27.6,0,23.9,0
2004/10/1 23:15,20.5,0,88,0,27.8,0,56,0,27.5,0,23.9,0
2004/10/1 23:30,20.4,0,89,0,27.8,0,56.5,0,27.5,0,23.9,0
2004/10/1 23:45,20.5,0,88,0,27.8,0,56.3,0,27.4,0,24,0
2004/10/2 0:00,20.3,0,88,0,27.7,0,56.1,0,27.3,0,24,0
2004/10/2 0:15,20.2,0,88,0,27.6,0,55.7,0,27.2,0,23.6,0
2004/10/2 0:30,20.1,0,89,0,27.5,0,56,0,27.1,0,23.6,0
2004/10/2 0:45,20,0,88,0,27.5,0,56.1,0,27,0,23.6,0
2004/10/2 0:59,20.1,0,87,0,27.4,0,56.1,0,27,0,23.7,0
2004/10/2 1:14,20.2,0,87,0,27.3,0,56.1,0,26.9,0,23.7,0
2004/10/2 1:29,20.2,0,86,0,27.2,0,56.1,0,26.9,0,23.7,0
2004/10/2 1:44,20.2,0,85,0,27.2,0,56.3,0,26.8,0,23.7,0
2004/10/2 1:59,20.4,0,85,0,27.1,0,56.3,0,26.7,0,23.7,0
2004/10/2 2:14,20.6,0,83,0,27.1,0,56.2,0,26.7,0,23.7,0
2004/10/2 2:29,20.6,0,82,0,27,0,56.2,0,26.6,0,23.7,0
2004/10/2 2:44,20.7,0,80,0,26.9,0,56.2,0,26.5,0,23.8,0
2004/10/2 2:59,20.7,0,83,0,26.9,0,56.3,0,26.5,0,23.8,0
2004/10/2 3:14,20.4,0,91,0,26.8,0,56.4,0,26.4,0,23.8,0
2004/10/2 3:29,20.2,0,95,0,26.8,0,56.6,0,26.4,0,23.8,0
2004/10/2 3:44,20.4,0,96,0,26.8,0,56.8,0,26.4,0,23.8,0
2004/10/2 3:59,20.3,0,98,0,26.7,0,57,0,26.3,0,23.8,0
2004/10/2 4:14,20.3,0,99,0,26.7,0,57.1,0,26.3,0,23.8,0
2004/10/2 4:29,20.1,0,99,0,26.7,0,57.3,0,26.2,0,23.8,0
2004/10/2 4:44,20,0,99,0,26.7,0,57.4,0,26.2,0,23.8,0
2004/10/2 4:59,20,0,99,0,26.6,0,57.6,0,26.2,0,23.8,0
2004/10/2 5:14,20,0,99,0,26.6,0,57.7,0,26.1,0,23.9,0
2004/10/2 5:29,20.2,0,99,0,26.5,0,57.8,0,26.1,0,23.9,0
2004/10/2 5:44,20.3,0,99,0,26.5,0,58,0,26,0,23.9,0
2004/10/2 5:59,20.4,0,99,0,26.5,0,58.2,0,26,0,23.9,0
2004/10/2 6:14,20.5,0,99,0,26.4,0,58.3,0,26,0,23.9,0
2004/10/2 6:29,20.6,0,98,0,26.4,0,58.3,0,25.9,0,23.9,0
2004/10/2 6:44,20.3,0,92,0,26.4,0,58.3,0,25.9,0,23.9,0
2004/10/2 6:59,20.6,0,86,0,26.3,0,58.3,0,25.9,0,23.9,0
2004/10/2 7:14,20.4,0,87,0,26.3,0,58.2,0,25.8,0,23.9,0
2004/10/2 7:29,20.4,0,88,0,26.3,0,58.2,0,25.8,0,23.9,0
2004/10/2 7:44,20.6,0,87,0,26.2,0,58.2,0,25.8,0,23.9,0
2004/10/2 7:59,20.7,0,86,0,26.2,0,58.2,0,25.7,0,23.9,0
2004/10/2 8:14,20.8,0,87,0,26.2,0,58.1,0,25.7,0,23.9,0
2004/10/2 8:29,20.9,0,88,0,26.2,0,58.2,0,25.7,0,23.9,0
2004/10/2 8:44,20.8,0,87,0,26.1,0,58.2,0,25.7,0,23.9,0
2004/10/2 8:59,20.5,0,90,0,26.1,0,58.2,0,25.6,0,23.9,0
2004/10/2 9:14,20.3,0,93,0,26.1,0,58.3,0,25.6,0,24,0
2004/10/2 9:29,20,0,95,0,26.1,0,58.4,0,25.6,0,23.9,0
2004/10/2 9:44,19.9,0,97,0,26.1,0,58.4,0,25.5,0,23.9,0
2004/10/2 9:59,19.9,0,95,0,26,0,58.4,0,25.5,0,23.9,0
2004/10/2 10:14,20,0,91,0,26,0,58.4,0,25.5,0,23.9,0
2004/10/2 10:29,20,0,88,0,26,0,58.3,0,25.5,0,24,0
2004/10/2 10:44,20,0,88,0,25.9,0,58.2,0,25.4,0,24,0
2004/10/2 10:59,20.2,0,87,0,25.9,0,58.2,0,25.4,0,23.9,0
2004/10/2 11:14,19.9,0,86,0,25.9,0,58,0,25.4,0,24,0
2004/10/2 11:29,19.8,0,89,0,25.9,0,58,0,25.4,0,24,0
2004/10/2 11:44,19.7,0,87,0,25.8,0,57.9,0,25.3,0,23.9,0
2004/10/2 11:59,19.9,0,86,0,25.8,0,57.8,0,25.3,0,24,0
2004/10/2 12:14,19.8,0,83,0,25.7,0,57.7,0,25.3,0,24,0
2004/10/2 12:29,19.9,0,82,0,25.7,0,57.6,0,25.2,0,23.9,0
2004/10/2 12:44,20,0,79,0,25.7,0,57.4,0,25.2,0,23.9,0
2004/10/2 12:59,19.7,0,81,0,25.7,0,57.2,0,25.2,0,23.9,0
2004/10/2 13:14,19.5,0,83,0,25.6,0,57.2,0,25.2,0,23.9,0
2004/10/2 13:29,19.2,0,85,0,25.6,0,57.1,0,25.1,0,23.9,0
2004/10/2 13:44,19.1,0,87,0,25.6,0,57.2,0,25.1,0,23.9,0
2004/10/2 13:59,19,0,88,0,25.6,0,57.2,0,25,0,23.9,0
2004/10/2 14:14,19,0,88,0,25.6,0,57.4,0,25,0,23.9,0
2004/10/2 14:29,19.1,0,86,0,25.6,0,57.5,0,25,0,23.9,0
2004/10/2 14:44,19.2,0,85,0,25.6,0,57.4,0,25,0,23.9,0
2004/10/2 14:59,19.5,0,83,0,25.6,0,57.3,0,24.9,0,23.6,0
2004/10/2 15:14,19.6,0,82,0,25.6,0,57.3,0,24.9,0,23.6,0
2004/10/2 15:29,19.7,0,84,0,25.6,0,57.3,0,24.9,0,23.6,0
2004/10/2 15:44,19.4,0,85,0,25.6,0,57.2,0,24.9,0,23.4,0
2004/10/2 15:59,19.4,0,87,0,25.6,0,57.2,0,24.8,0,23.4,0
2004/10/2 16:14,19.5,0,84,0,25.7,0,57.3,0,24.8,0,23.4,0
2004/10/2 16:29,19.5,0,83,0,25.8,0,57.1,0,24.8,0,23.4,0
2004/10/2 16:44,19.6,0,81,0,25.8,0,56.7,0,24.8,0,23.4,0
2004/10/2 16:59,19.7,0,80,0,25.8,0,56.4,0,24.8,0,23.4,0
2004/10/2 17:14,19.8,0,83,0,25.9,0,56.3,0,24.8,0,23.4,0
2004/10/2 17:29,19.6,0,85,0,26.2,0,55.8,0,24.7,0,23.4,0
2004/10/2 17:44,19.3,0,89,0,26.5,0,54.7,0,24.7,0,23.3,0
2004/10/2 17:59,19,0,91,0,26.6,0,54.3,0,24.7,0,23.3,0
2004/10/2 18:14,18.7,0,92,0,26.6,0,54,0,24.7,0,23.3,0
2004/10/2 18:29,18.7,0,93,0,26.6,0,53.9,0,24.7,0,23.2,0
2004/10/2 18:44,18.6,0,94,0,26.7,0,53.8,0,24.7,0,23.2,0
2004/10/2 18:59,18.7,0,94,0,26.7,0,53.6,0,24.6,0,23.2,0
2004/10/2 19:14,18.7,0,94,0,26.4,0,54.7,0,24.6,0,23.2,0
2004/10/2 19:29,18.8,0,93,0,26.2,0,54.9,0,24.6,0,23.2,0
2004/10/2 19:44,18.7,0,93,0,26.2,0,55.2,0,24.6,0,23.2,0
2004/10/2 19:59,18.6,0,94,0,26.1,0,55.4,0,24.6,0,23.2,0
2004/10/2 20:14,18.6,0,95,0,26.2,0,55.3,0,24.5,0,23.2,0
2004/10/2 20:29,18.8,0,94,0,26.2,0,55.7,0,24.5,0,23.2,0
2004/10/2 20:44,18.6,0,93,0,26.1,0,55.6,0,24.5,0,23.2,0
2004/10/2 20:59,18.4,0,95,0,26.1,0,55.9,0,24.4,0,23.2,0
2004/10/2 21:14,18.3,0,95,0,26.2,0,56.6,0,24.4,0,23.2,0
2004/10/2 21:29,18.2,0,94,0,26.2,0,56.8,0,24.3,0,23.2,0
2004/10/2 21:44,18.1,0,95,0,26.2,0,56.8,0,24.3,0,23.2,0
2004/10/2 21:59,18,0,95,0,26.2,0,56.6,0,24.3,0,23.2,0
2004/10/2 22:14,17.9,0,95,0,26.2,0,56.7,0,24.3,0,23.2,0
2004/10/2 22:29,18,0,95,0,26.2,0,56.5,0,24.2,0,23.2,0
2004/10/2 22:44,17.9,0,95,0,26.2,0,56.1,0,24.2,0,23.1,0
2004/10/2 22:59,17.8,0,96,0,26.1,0,54.9,0,24.2,0,23.1,0
2004/10/2 23:14,17.9,0,96,0,25.9,0,55.1,0,24.2,0,23.1,0
2004/10/2 23:29,17.9,0,96,0,25.8,0,55.2,0,24.1,0,23.1,0
2004/10/2 23:44,17.8,0,96,0,25.7,0,55.4,0,24.1,0,23.1,0
2004/10/2 23:59,17.8,0,97,0,25.6,0,55.5,0,24,0,23.1,0
2004/10/3 0:14,17.9,0,96,0,25.5,0,55.6,0,24,0,23,0
2004/10/3 0:29,18,0,96,0,25.4,0,55.9,0,24,0,23,0
2004/10/3 0:44,18,0,95,0,25.3,0,56.3,0,24,0,23,0
2004/10/3 0:59,18.2,0,94,0,25.3,0,56.7,0,24,0,23,0
2004/10/3 1:14,18.8,0,92,0,25.5,0,56.3,0,24,0,23,0
2004/10/3 1:29,19.4,0,86,0,25.3,0,56.4,0,23.9,0,23,0
2004/10/3 1:44,19.5,0,85,0,25.2,0,56.6,0,23.9,0,23,0
2004/10/3 1:59,19.5,0,87,0,25.1,0,56.7,0,23.9,0,23,0
2004/10/3 2:14,19.6,0,88,0,25,0,56.8,0,23.8,0,23,0
2004/10/3 2:29,19.6,0,89,0,25,0,57,0,23.8,0,23,0
2004/10/3 2:44,19.8,0,88,0,24.9,0,57,0,23.8,0,23,0
2004/10/3 2:59,19.8,0,87,0,24.9,0,57.1,0,23.8,0,23,0
2004/10/3 3:14,20.1,0,85,0,24.9,0,57.1,0,23.7,0,23,0
2004/10/3 3:29,20.1,0,87,0,24.8,0,57.2,0,23.7,0,23,0
2004/10/3 3:44,19.4,0,81,0,24.8,0,57.3,0,23.7,0,23,0
2004/10/3 3:59,19.1,0,89,0,24.8,0,57.5,0,23.7,0,23,0
2004/10/3 4:14,19.4,0,94,0,24.7,0,57.6,0,23.6,0,23,0
2004/10/3 4:29,19.4,0,95,0,24.7,0,57.8,0,23.6,0,23,0
2004/10/3 4:44,19.2,0,96,0,24.7,0,58,0,23.6,0,23,0
2004/10/3 4:59,18.9,0,94,0,24.7,0,58.2,0,23.6,0,23,0
2004/10/3 5:14,18.5,0,95,0,24.7,0,58.3,0,23.6,0,23,0
2004/10/3 5:29,18.6,0,98,0,24.7,0,58.4,0,23.6,0,23,0
2004/10/3 5:44,19.1,0,97,0,24.6,0,58.5,0,23.5,0,23,0
2004/10/3 5:59,19.2,0,97,0,24.6,0,58.5,0,23.5,0,23,0
2004/10/3 6:14,19.1,0,96,0,24.6,0,58.6,0,23.5,0,23,0
2004/10/3 6:29,19.2,0,95,0,24.6,0,58.6,0,23.5,0,23,0
2004/10/3 6:44,18.6,0,98,0,24.5,0,58.6,0,23.5,0,23,0
2004/10/3 6:59,18.8,0,99,0,24.5,0,58.7,0,23.5,0,23.1,0
2004/10/3 7:14,19.5,0,99,0,24.5,0,58.9,0,23.5,0,23.1,0
2004/10/3 7:29,19.5,0,99,0,24.5,0,59,0,23.5,0,23.1,0
2004/10/3 7:44,20.2,0,99,0,24.6,0,58.9,0,23.5,0,23.1,0
2004/10/3 7:59,20.7,0,96,0,24.6,0,58.9,0,23.5,0,23.1,0
2004/10/3 8:14,21.1,0,90,0,24.6,0,58.9,0,23.4,0,23.1,0
2004/10/3 8:29,20.6,0,91,0,24.7,0,58.9,0,23.4,0,23.1,0
2004/10/3 8:44,20.8,0,88,0,24.8,0,58.6,0,23.4,0,23.1,0
2004/10/3 8:59,21.1,0,87,0,24.9,0,58.5,0,23.4,0,23.1,0
2004/10/3 9:14,21.5,0,84,0,25,0,58.3,0,23.4,0,23.1,0
2004/10/3 9:29,21.8,0,83,0,25.2,0,58.2,0,23.4,0,23.1,0
2004/10/3 9:44,21.8,0,79,0,25.3,0,58,0,23.4,0,23.1,0
2004/10/3 9:59,22.2,0,77,0,25.4,0,58,0,23.5,0,23.1,0
2004/10/3 10:14,23.2,0,73,0,25.6,0,57.9,0,23.5,0,23.1,0
2004/10/3 10:29,23.2,0,72,0,25.7,0,57.8,0,23.6,0,23.1,0
2004/10/3 10:44,24.1,0,66,0,25.7,0,58,0,23.7,0,23.1,0
2004/10/3 10:59,24.2,0,64,0,25.7,0,58.2,0,23.8,0,23.1,0
2004/10/3 11:14,23.7,0,66,0,25.8,0,58.6,0,23.9,0,23.1,0
2004/10/3 11:29,23.6,0,68,0,25.8,0,58.7,0,24,0,23.1,0
2004/10/3 11:44,23.7,0,68,0,25.8,0,58.9,0,24.2,0,23,0
2004/10/3 11:59,23.8,0,69,0,26,0,59,0,24.3,0,23,0
2004/10/3 12:14,24,0,67,0,26.1,0,58.8,0,24.4,0,22.9,0
2004/10/3 12:29,25.6,0,62,0,26,0,58.8,0,24.5,0,22.9,0
2004/10/3 12:44,24.3,0,63,0,26,0,58.9,0,24.6,0,22.9,0
2004/10/3 12:59,24.4,0,62,0,25.9,0,58.9,0,24.7,0,22.8,0
2004/10/3 13:14,24.6,0,61,0,25.9,0,58.9,0,24.8,0,22.8,0
2004/10/3 13:29,24.4,0,63,0,25.9,0,59,0,24.8,0,22.8,0
2004/10/3 13:44,24.2,0,63,0,25.9,0,58.9,0,24.9,0,22.8,0
2004/10/3 13:59,24.1,0,65,0,25.9,0,58.9,0,25,0,22.8,0
2004/10/3 14:14,24.2,0,66,0,26,0,59.2,0,25.1,0,22.8,0
2004/10/3 14:29,23.9,0,66,0,26,0,59.2,0,25.1,0,22.9,0
2004/10/3 14:44,23.9,0,66,0,26,0,59.2,0,25.2,0,22.9,0
2004/10/3 14:59,23.7,0,64,0,26,0,59,0,25.2,0,22.9,0
2004/10/3 15:14,23.7,0,64,0,26,0,58.9,0,25.2,0,22.9,0
2004/10/3 15:29,23.8,0,65,0,26,0,58.8,0,25.2,0,22.9,0
2004/10/3 15:44,23.7,0,66,0,26,0,58.7,0,25.3,0,22.9,0
2004/10/3 15:59,23.3,0,68,0,26,0,58.6,0,25.3,0,22.9,0
2004/10/3 16:14,22.9,0,70,0,26,0,58.5,0,25.3,0,22.9,0
2004/10/3 16:29,22.8,0,71,0,26.1,0,58.4,0,25.4,0,22.9,0
2004/10/3 16:44,22.5,0,72,0,26.1,0,58.1,0,25.4,0,22.9,0
2004/10/3 16:59,22.3,0,73,0,26.1,0,58,0,25.5,0,22.9,0
2004/10/3 17:14,22.1,0,75,0,26.1,0,57.8,0,25.5,0,22.9,0
2004/10/3 17:29,22.1,0,76,0,26.1,0,57.8,0,25.5,0,22.9,0
2004/10/3 17:44,21.8,0,76,0,26,0,57.8,0,25.5,0,23,0
2004/10/3 17:59,21.7,0,77,0,26,0,57.9,0,25.5,0,23,0
2004/10/3 18:14,21.7,0,78,0,26,0,58.4,0,25.4,0,23,0
2004/10/3 18:29,21.7,0,78,0,25.9,0,58.2,0,25.4,0,23,0
2004/10/3 18:44,21.4,0,78,0,25.9,0,58.1,0,25.4,0,23,0
2004/10/3 18:59,21.4,0,78,0,26.1,0,57.6,0,25.3,0,23,0
2004/10/3 19:14,21.2,0,78,0,26,0,57.6,0,25.3,0,23,0
2004/10/3 19:29,21.1,0,78,0,26.1,0,57.7,0,25.2,0,23,0
2004/10/3 19:44,21,0,79,0,26.1,0,57.7,0,25.2,0,23,0
2004/10/3 19:59,20.9,0,78,0,26.1,0,57.8,0,25.2,0,23,0
2004/10/3 20:14,20.8,0,78,0,26.1,0,57.7,0,25.2,0,23,0
2004/10/3 20:29,20.7,0,78,0,26.1,0,57.4,0,25.1,0,23,0
2004/10/3 20:44,20.7,0,78,0,26.2,0,57.3,0,25,0,22.9,0
2004/10/3 20:59,20.5,0,78,0,26.2,0,57.1,0,25,0,22.9,0
2004/10/3 21:14,20.6,0,77,0,26.2,0,57,0,25,0,23,0
2004/10/3 21:29,20.5,0,76,0,26.2,0,56.9,0,25,0,23,0
2004/10/3 21:44,20.4,0,76,0,26.2,0,56.8,0,25,0,23,0
2004/10/3 21:59,20.4,0,75,0,26.2,0,56.7,0,24.9,0,23,0
2004/10/3 22:14,20.3,0,75,0,26.2,0,57,0,24.9,0,23,0
2004/10/3 22:29,20.3,0,74,0,26.1,0,56.7,0,24.9,0,23,0
2004/10/3 22:44,20.2,0,74,0,26.1,0,56.6,0,24.9,0,23,0
2004/10/3 22:59,20.2,0,74,0,26.1,0,56.4,0,24.9,0,23,0
2004/10/3 23:14,20.1,0,74,0,26,0,56.3,0,24.8,0,23,0
2004/10/3 23:29,19.9,0,75,0,26,0,56.4,0,24.8,0,23,0
2004/10/3 23:44,20,0,74,0,26,0,56.3,0,24.8,0,23.1,0
2004/10/3 23:59,19.8,0,75,0,26,0,56.1,0,24.8,0,23.1,0
2004/10/4 0:14,19.9,0,75,0,25.9,0,55.9,0,24.8,0,23,0
2004/10/4 0:29,19.8,0,73,0,25.9,0,55.8,0,24.8,0,23,0
2004/10/4 0:44,19.6,0,75,0,25.8,0,55.7,0,24.8,0,23,0
2004/10/4 0:59,19.1,0,81,0,25.7,0,55.7,0,24.8,0,23,0
2004/10/4 1:14,19,0,82,0,25.6,0,55.8,0,24.7,0,23,0
2004/10/4 1:29,18.9,0,80,0,25.5,0,55.7,0,24.7,0,22.9,0
2004/10/4 1:44,18.6,0,84,0,25.5,0,55.8,0,24.7,0,22.9,0
2004/10/4 1:59,18,0,88,0,25.4,0,55.9,0,24.7,0,22.9,0
2004/10/4 2:14,17.8,0,90,0,25.4,0,56,0,24.6,0,23,0
2004/10/4 2:29,17.6,0,90,0,25.3,0,56.1,0,24.6,0,23,0
2004/10/4 2:44,17.5,0,91,0,25.2,0,56.1,0,24.5,0,23,0
2004/10/4 2:59,17.4,0,90,0,25.2,0,56.1,0,24.5,0,23,0
2004/10/4 3:14,17.5,0,90,0,25.4,0,55.4,0,24.4,0,23,0
2004/10/4 3:29,17.4,0,87,0,25.2,0,55.6,0,24.4,0,23,0
2004/10/4 3:44,17.3,0,88,0,25.1,0,55.4,0,24.4,0,23.1,0
2004/10/4 3:59,17.1,0,89,0,25,0,55.4,0,24.3,0,23.1,0
2004/10/4 4:14,17.1,0,90,0,25,0,55.3,0,24.3,0,23.1,0
2004/10/4 4:29,17.1,0,89,0,24.9,0,55.3,0,24.3,0,23.1,0
2004/10/4 4:44,16.9,0,90,0,24.8,0,55.2,0,24.2,0,23.1,0
2004/10/4 4:59,16.8,0,90,0,24.8,0,55.1,0,24.2,0,23.1,0
2004/10/4 5:14,16.7,0,90,0,24.7,0,55.2,0,24.1,0,23.1,0
2004/10/4 5:29,16.6,0,91,0,24.7,0,55.1,0,24.1,0,23.1,0
2004/10/4 5:44,16.8,0,90,0,24.6,0,55.1,0,24,0,23.1,0
2004/10/4 5:59,16.9,0,91,0,24.6,0,55.1,0,24,0,23.1,0
2004/10/4 6:14,17.2,0,90,0,24.7,0,54.9,0,23.9,0,23.1,0
2004/10/4 6:29,17.9,0,88,0,24.8,0,55.1,0,23.9,0,23.1,0
2004/10/4 6:44,18.6,0,87,0,24.9,0,55.1,0,23.8,0,23.1,0
2004/10/4 6:59,19.9,0,78,0,25.1,0,55,0,23.8,0,23.1,0
2004/10/4 7:14,20.2,0,75,0,25.2,0,54.9,0,23.7,0,23.1,0
2004/10/4 7:29,20.7,0,74,0,25.4,0,54.7,0,23.7,0,23.1,0
2004/10/4 7:44,21.1,0,73,0,25.5,0,54.5,0,23.7,0,23.1,0
2004/10/4 7:59,21.5,0,70,0,25.6,0,54.2,0,23.7,0,23.1,0
2004/10/4 8:14,21.9,0,68,0,25.7,0,54,0,23.7,0,23,0
2004/10/4 8:29,22.5,0,64,0,25.8,0,54,0,23.8,0,23,0
2004/10/4 8:44,22.9,0,64,0,25.9,0,54,0,23.8,0,22.9,0
2004/10/4 8:59,23,0,63,0,25.8,0,54.1,0,23.9,0,22.9,0
2004/10/4 9:14,23.2,0,63,0,25.9,0,54,0,24,0,22.9,0
2004/10/4 9:29,23.7,0,60,0,26,0,53.8,0,24.1,0,22.9,0
2004/10/4 9:44,24.2,0,58,0,26,0,53.8,0,24.2,0,22.9,0
2004/10/4 9:59,24.3,0,58,0,26.1,0,53.6,0,24.3,0,22.9,0
2004/10/4 10:14,24.9,0,56,0,26.2,0,53.6,0,24.4,0,22.9,0
2004/10/4 10:29,25,0,55,0,26.2,0,53.8,0,24.4,0,22.9,0
2004/10/4 10:44,24.8,0,57,0,26.2,0,53.9,0,24.5,0,23,0
2004/10/4 10:59,25.1,0,56,0,26.2,0,53.9,0,24.6,0,23,0
2004/10/4 11:14,26.1,0,52,0,26.3,0,53.9,0,24.7,0,22.9,0
2004/10/4 11:29,26.3,0,51,0,26.4,0,53.9,0,24.7,0,22.9,0
2004/10/4 11:44,26.8,0,50,0,26.5,0,53.7,0,24.8,0,23,0
2004/10/4 11:59,26.6,0,50,0,26.6,0,53.8,0,24.9,0,23,0
2004/10/4 12:14,26.8,0,49,0,26.7,0,53.6,0,25,0,23,0
2004/10/4 12:29,26.9,0,48,0,26.7,0,53.8,0,25.1,0,23,0
2004/10/4 12:44,26.9,0,50,0,26.8,0,54,0,25.3,0,23,0
2004/10/4 12:59,26.2,0,51,0,26.9,0,53.9,0,25.4,0,23,0
2004/10/4 13:14,27.1,0,49,0,26.9,0,53.9,0,25.5,0,23,0
2004/10/4 13:29,27.3,0,49,0,27,0,53.9,0,25.7,0,23,0
2004/10/4 13:44,27.6,0,50,0,27.1,0,54,0,25.8,0,23,0
2004/10/4 13:59,27.8,0,50,0,27.1,0,54.2,0,25.9,0,23,0
2004/10/4 14:14,27.6,0,50,0,27.2,0,54.1,0,26.1,0,23,0
2004/10/4 14:29,26.5,0,52,0,27.1,0,54.4,0,26.3,0,23,0
2004/10/4 14:44,25.4,0,56,0,27.1,0,54.5,0,26.4,0,23,0
2004/10/4 14:59,24.9,0,60,0,27,0,54.6,0,26.5,0,23,0
2004/10/4 15:14,24.2,0,62,0,27,0,54.7,0,26.7,0,23,0
2004/10/4 15:29,23.9,0,63,0,26.9,0,54.7,0,26.8,0,23,0
2004/10/4 15:44,23.6,0,64,0,26.9,0,54.6,0,26.9,0,23.1,0
2004/10/4 15:59,23.5,0,65,0,26.9,0,54.5,0,26.9,0,23.1,0
2004/10/4 16:14,23.2,0,66,0,26.8,0,54.6,0,26.9,0,23.1,0
2004/10/4 16:29,23,0,67,0,26.8,0,54.5,0,26.9,0,23.1,0
2004/10/4 16:44,22.8,0,69,0,26.7,0,54.5,0,26.9,0,23.1,0
2004/10/4 16:59,22.7,0,70,0,26.7,0,54.5,0,26.9,0,23.1,0
2004/10/4 17:14,22.5,0,71,0,26.7,0,54.5,0,26.9,0,23.1,0
2004/10/4 17:29,22.4,0,72,0,26.6,0,54.5,0,26.9,0,23.2,0
2004/10/4 17:44,22.2,0,73,0,26.6,0,54.6,0,26.9,0,23.2,0
2004/10/4 17:59,21.9,0,74,0,26.9,0,54,0,26.8,0,23.2,0
2004/10/4 18:14,21.9,0,73,0,27.2,0,53,0,26.8,0,23.2,0
2004/10/4 18:29,21.8,0,73,0,26.9,0,53.4,0,26.8,0,23.2,0
2004/10/4 18:44,21.7,0,73,0,26.8,0,53.5,0,26.7,0,23.2,0
2004/10/4 18:59,21.8,0,74,0,26.8,0,53.6,0,26.7,0,23.2,0
2004/10/4 19:14,21.7,0,74,0,26.8,0,53.5,0,26.6,0,23.2,0
2004/10/4 19:29,21.5,0,74,0,26.7,0,53.4,0,26.6,0,23.3,0
2004/10/4 19:44,21.4,0,74,0,26.8,0,53.5,0,26.5,0,23.3,0
2004/10/4 19:59,21.4,0,74,0,26.7,0,53.6,0,26.5,0,23.3,0
2004/10/4 20:14,21.5,0,74,0,26.7,0,53.7,0,26.4,0,23.3,0
2004/10/4 20:29,21.5,0,73,0,26.7,0,53.6,0,26.4,0,23.3,0
2004/10/4 20:44,21.4,0,74,0,26.7,0,53.5,0,26.3,0,23.3,0
2004/10/4 20:59,20.9,0,78,0,27.1,0,52.7,0,26.3,0,23.3,0
2004/10/4 21:14,20.6,0,81,0,27.2,0,52.3,0,26.2,0,23.4,0
2004/10/4 21:29,20.7,0,80,0,27,0,53.1,0,26.2,0,23.1,0
2004/10/4 21:44,20.5,0,82,0,26.9,0,53.2,0,26.1,0,23.1,0
2004/10/4 21:59,20.4,0,82,0,26.9,0,53.4,0,26,0,23.1,0
2004/10/4 22:14,20.4,0,83,0,26.9,0,53.5,0,26,0,23.2,0
2004/10/4 22:29,20.3,0,84,0,26.8,0,53.7,0,26,0,23.2,0
2004/10/4 22:44,20.1,0,84,0,26.8,0,53.7,0,25.9,0,23.2,0
2004/10/4 22:59,20.1,0,84,0,26.8,0,54.1,0,25.9,0,23.2,0
2004/10/4 23:14,20,0,87,0,26.8,0,54.6,0,25.8,0,23.2,0
2004/10/4 23:29,20,0,87,0,27,0,54.1,0,25.8,0,23.1,0
2004/10/4 23:44,20.1,0,85,0,26.8,0,54.1,0,25.8,0,23.2,0
2004/10/4 23:59,20.2,0,85,0,26.7,0,54.3,0,25.7,0,23.2,0
2004/10/5 0:14,20.2,0,86,0,26.6,0,54.3,0,25.7,0,23.2,0
2004/10/5 0:29,20.1,0,86,0,26.5,0,54.3,0,25.6,0,23.2,0
2004/10/5 0:44,20.2,0,85,0,26.4,0,54.3,0,25.6,0,23,0
2004/10/5 0:59,19.9,0,86,0,26.3,0,54.4,0,25.6,0,23,0
2004/10/5 1:14,20,0,85,0,26.3,0,54.6,0,25.5,0,22.8,0
2004/10/5 1:29,20.1,0,84,0,26.2,0,54.8,0,25.5,0,22.8,0
2004/10/5 1:44,20.2,0,84,0,26.2,0,54.9,0,25.5,0,22.8,0
2004/10/5 1:59,20.3,0,82,0,26.1,0,55,0,25.4,0,22.8,0
2004/10/5 2:14,20.1,0,84,0,26.1,0,55.2,0,25.4,0,22.8,0
2004/10/5 2:29,19.9,0,87,0,26.1,0,55.4,0,25.3,0,22.8,0
2004/10/5 2:44,19.9,0,85,0,26,0,55.4,0,25.3,0,22.8,0
2004/10/5 2:59,20.1,0,82,0,26,0,55.3,0,25.2,0,22.8,0
2004/10/5 3:14,20,0,84,0,25.9,0,55.3,0,25.2,0,23,0
2004/10/5 3:29,19.9,0,84,0,25.9,0,55.2,0,25.2,0,23.1,0
2004/10/5 3:44,20,0,83,0,25.9,0,55.2,0,25.1,0,23.1,0
2004/10/5 3:59,20.2,0,80,0,25.8,0,55.1,0,25.1,0,23.1,0
2004/10/5 4:14,20.3,0,79,0,25.7,0,55.1,0,25.1,0,23.1,0
2004/10/5 4:29,20.3,0,78,0,25.7,0,55.1,0,25,0,23.1,0
2004/10/5 4:44,20.4,0,77,0,25.7,0,55.2,0,25,0,23.1,0
2004/10/5 4:59,20.3,0,78,0,25.7,0,55.1,0,24.9,0,23.1,0
2004/10/5 5:14,20.2,0,79,0,25.6,0,55.1,0,24.9,0,23.1,0
2004/10/5 5:29,20.4,0,79,0,25.6,0,55.1,0,24.9,0,23.2,0
2004/10/5 5:44,20.3,0,79,0,25.5,0,55.2,0,24.8,0,23.2,0
2004/10/5 5:59,20.4,0,79,0,25.5,0,55.2,0,24.8,0,23.2,0
2004/10/5 6:14,20.6,0,80,0,25.6,0,55.1,0,24.8,0,23.2,0
2004/10/5 6:29,20.7,0,79,0,25.7,0,55.1,0,24.8,0,23.2,0
2004/10/5 6:44,21.1,0,79,0,25.9,0,54.9,0,24.7,0,23.2,0
2004/10/5 6:59,21.4,0,75,0,26.1,0,54.8,0,24.7,0,23.2,0
2004/10/5 7:14,21.7,0,75,0,26.2,0,54.5,0,24.7,0,23.2,0
2004/10/5 7:29,22.1,0,73,0,26.3,0,54.4,0,24.6,0,23.2,0
2004/10/5 7:44,22.7,0,71,0,26.2,0,54.6,0,24.6,0,23.2,0
2004/10/5 7:59,22.6,0,71,0,26.2,0,54.8,0,24.7,0,23.1,0
2004/10/5 8:14,22.5,0,71,0,26.2,0,54.9,0,24.7,0,23.1,0
2004/10/5 8:29,22.3,0,71,0,26.1,0,55,0,24.7,0,23.2,0
2004/10/5 8:44,22.5,0,70,0,26.2,0,55.1,0,24.8,0,23.2,0
2004/10/5 8:59,23.1,0,67,0,26.2,0,55.1,0,24.9,0,23.2,0
2004/10/5 9:14,23.2,0,66,0,26.2,0,55.2,0,24.9,0,23.2,0
2004/10/5 9:29,23.2,0,66,0,26.2,0,55.2,0,25,0,23.2,0
2004/10/5 9:44,23.4,0,64,0,26.3,0,55,0,25,0,23.2,0
2004/10/5 9:59,23.9,0,62,0,26.4,0,54.9,0,25,0,23.2,0
2004/10/5 10:14,24.3,0,61,0,26.5,0,54.7,0,25,0,23.2,0
2004/10/5 10:29,23.7,0,61,0,26.5,0,54.7,0,25.1,0,23.2,0
2004/10/5 10:44,23.6,0,61,0,26.5,0,54.7,0,25.1,0,23.2,0
2004/10/5 10:59,23.2,0,64,0,26.5,0,54.7,0,25.2,0,23.3,0
2004/10/5 11:14,23.1,0,66,0,26.5,0,54.8,0,25.2,0,23.3,0
2004/10/5 11:29,23.1,0,69,0,26.5,0,54.7,0,25.3,0,23.3,0
2004/10/5 11:44,22.8,0,70,0,26.4,0,54.8,0,25.4,0,23.3,0